{"data":{"norad_id":64363,"intl_designator":"2025-126V","name":"STARLINK-34408","alt_names":[],"object_type":"PAYLOAD","status":"ACTIVE","operator":null,"country":"US","launch_date":"2025-06-13","launch_site_code":"AFWTR","launch_vehicle":null,"mission":null,"orbit_class":"UNKNOWN","rcs_meters":null,"size_class":null,"mass_kg":null,"dimensions":null,"purposes":["comms"],"wikipedia_slug":null,"has_3d_model":false,"image_url":null,"decayed_at":null,"tle_current":{"epoch":"2026-05-24T13:54:25.794144Z","epoch_age_seconds":118303,"freshness":"FRESH","line1":"1 64363U 25126V   26144.57946521  .00001615  00000+0  14312-3 0  9990","line2":"2 64363  70.0004 202.9396 0004117 266.7554  93.3134 14.98333791 52057","mean_motion":14.98333791,"eccentricity":0.0004117,"inclination_deg":70.0004,"raan_deg":202.9396,"arg_perigee_deg":266.7554,"mean_anomaly_deg":93.3134,"bstar":0.00014312,"rev_number":5205,"period_min":96.106755961162,"perigee_km":569.18277802765,"apogee_km":574.90555720106,"semimajor_km":6950.1811676144,"source":"CELESTRAK","updated_at":"2026-05-25T13:38:20.405843Z"}}}